Time,TemperatureF,DewpointF,PressureIn,WindDirection,WindDirectionDegrees,WindSpeedMPH,WindSpeedGustMPH,Humidity,HourlyPrecipIn,Conditions,Clouds,dailyrainin,SoftwareType,DateUTC
2013-06-28 00:22:00,85.0,82.0,-100.00,WSW,246,8.0,-999.0,93,0.00,,,-99.99,,2013-06-28 05:22:00,
2013-06-28 00:33:00,85.0,82.0,-100.00,WSW,246,8.0,-999.0,93,0.00,,,-99.99,,2013-06-28 05:33:00,
2013-06-28 00:43:00,85.0,82.0,-100.00,WSW,246,8.0,-999.0,93,0.00,,,-99.99,,2013-06-28 05:43:00,
2013-06-28 01:22:00,85.0,83.0,-100.00,WSW,244,10.0,-999.0,95,0.00,,,-99.99,,2013-06-28 06:22:00,
2013-06-28 01:33:00,85.0,83.0,-100.00,WSW,244,10.0,-999.0,95,0.00,,,-99.99,,2013-06-28 06:33:00,
2013-06-28 01:42:00,85.0,83.0,-100.00,WSW,244,10.0,-999.0,95,0.00,,,-99.99,,2013-06-28 06:42:00,
2013-06-28 02:22:00,85.0,83.0,-100.00,West,275,8.0,-999.0,94,0.00,,,-99.99,,2013-06-28 07:22:00,
2013-06-28 02:33:00,85.0,83.0,-100.00,West,275,8.0,-999.0,94,0.00,,,-99.99,,2013-06-28 07:33:00,
2013-06-28 02:43:00,85.0,83.0,-100.00,West,275,8.0,-999.0,94,0.00,,,-99.99,,2013-06-28 07:43:00,
2013-06-28 03:22:00,84.0,83.0,-100.00,WSW,243,10.0,-999.0,96,0.00,,,-99.99,,2013-06-28 08:22:00,
2013-06-28 03:33:00,84.0,83.0,-100.00,WSW,243,10.0,-999.0,96,0.00,,,-99.99,,2013-06-28 08:33:00,
2013-06-28 03:43:00,84.0,83.0,-100.00,WSW,243,10.0,-999.0,96,0.00,,,-99.99,,2013-06-28 08:43:00,
2013-06-28 04:22:00,84.0,-99.9,-100.00,WSW,254,10.0,-999.0,104,0.00,,,-99.99,,2013-06-28 09:22:00,
2013-06-28 04:33:00,84.0,-99.9,-100.00,WSW,254,10.0,-999.0,104,0.00,,,-99.99,,2013-06-28 09:33:00,
2013-06-28 04:42:00,84.0,-99.9,-100.00,WSW,254,10.0,-999.0,104,0.00,,,-99.99,,2013-06-28 09:42:00,
2013-06-28 05:22:00,84.0,-99.9,-100.00,West,259,11.0,-999.0,107,0.00,,,-99.99,,2013-06-28 10:22:00,
2013-06-28 05:33:00,84.0,-99.9,-100.00,West,259,11.0,-999.0,107,0.00,,,-99.99,,2013-06-28 10:33:00,
2013-06-28 05:42:00,84.0,-99.9,-100.00,West,259,11.0,-999.0,107,0.00,,,-99.99,,2013-06-28 10:42:00,
2013-06-28 06:22:00,84.0,-99.9,-100.00,West,272,9.0,-999.0,108,0.00,,,-99.99,,2013-06-28 11:22:00,
2013-06-28 06:34:00,84.0,-99.9,-100.00,West,272,9.0,-999.0,108,0.00,,,-99.99,,2013-06-28 11:34:00,
2013-06-28 06:43:00,84.0,-99.9,-100.00,West,272,9.0,-999.0,108,0.00,,,-99.99,,2013-06-28 11:43:00,
2013-06-28 07:22:00,83.0,-99.9,-100.00,NW,319,8.0,-999.0,114,0.00,,,-99.99,,2013-06-28 12:22:00,
2013-06-28 07:34:00,83.0,-99.9,-100.00,NW,319,8.0,-999.0,114,0.00,,,-99.99,,2013-06-28 12:34:00,
2013-06-28 07:43:00,83.0,-99.9,-100.00,NW,319,8.0,-999.0,114,0.00,,,-99.99,,2013-06-28 12:43:00,
2013-06-28 08:23:00,83.0,83.0,-100.00,WNW,303,10.0,-999.0,98,0.00,,,-99.99,,2013-06-28 13:23:00,
2013-06-28 08:33:00,83.0,83.0,-100.00,WNW,303,10.0,-999.0,98,0.00,,,-99.99,,2013-06-28 13:33:00,
2013-06-28 08:43:00,83.0,83.0,-100.00,WNW,303,10.0,-999.0,98,0.00,,,-99.99,,2013-06-28 13:43:00,
2013-06-28 09:22:00,85.0,80.0,-100.00,WNW,302,10.0,-999.0,87,0.00,,,-99.99,,2013-06-28 14:22:00,
2013-06-28 09:33:00,85.0,80.0,-100.00,WNW,302,10.0,-999.0,87,0.00,,,-99.99,,2013-06-28 14:33:00,
2013-06-28 09:44:00,85.0,80.0,-100.00,WNW,302,10.0,-999.0,87,0.00,,,-99.99,,2013-06-28 14:44:00,
2013-06-28 10:24:00,86.0,79.0,-100.00,NW,316,10.0,-999.0,80,0.00,,,-99.99,,2013-06-28 15:24:00,
2013-06-28 10:34:00,86.0,79.0,-100.00,NW,316,10.0,-999.0,80,0.00,,,-99.99,,2013-06-28 15:34:00,
2013-06-28 10:43:00,86.0,79.0,-100.00,NW,316,10.0,-999.0,80,0.00,,,-99.99,,2013-06-28 15:43:00,
2013-06-28 11:24:00,89.0,77.0,-100.00,WNW,298,10.0,-999.0,69,0.00,,,-99.99,,2013-06-28 16:24:00,
2013-06-28 11:33:00,89.0,77.0,-100.00,WNW,298,10.0,-999.0,69,0.00,,,-99.99,,2013-06-28 16:33:00,
2013-06-28 11:44:00,89.0,77.0,-100.00,WNW,298,10.0,-999.0,69,0.00,,,-99.99,,2013-06-28 16:44:00,
2013-06-28 12:22:00,89.0,77.0,-100.00,NW,312,10.0,-999.0,66,0.00,,,-99.99,,2013-06-28 17:22:00,
2013-06-28 12:33:00,89.0,77.0,-100.00,NW,312,10.0,-999.0,66,0.00,,,-99.99,,2013-06-28 17:33:00,
2013-06-28 12:44:00,89.0,77.0,-100.00,NW,312,10.0,-999.0,66,0.00,,,-99.99,,2013-06-28 17:44:00,
2013-06-28 13:22:00,90.0,79.0,-100.00,SW,234,8.0,-999.0,68,0.00,,,-99.99,,2013-06-28 18:22:00,
2013-06-28 13:33:00,90.0,79.0,-100.00,SW,234,8.0,-999.0,68,0.00,,,-99.99,,2013-06-28 18:33:00,
2013-06-28 13:43:00,90.0,79.0,-100.00,SW,234,8.0,-999.0,68,0.00,,,-99.99,,2013-06-28 18:43:00,
2013-06-28 14:22:00,90.0,79.0,-100.00,WSW,253,11.0,-999.0,69,0.00,,,-99.99,,2013-06-28 19:22:00,
2013-06-28 14:33:00,90.0,79.0,-100.00,WSW,253,11.0,-999.0,69,0.00,,,-99.99,,2013-06-28 19:33:00,
2013-06-28 14:43:00,90.0,79.0,-100.00,WSW,253,11.0,-999.0,69,0.00,,,-99.99,,2013-06-28 19:43:00,
2013-06-28 15:22:00,88.0,82.0,-100.00,SW,227,16.0,-999.0,81,0.00,,,-99.99,,2013-06-28 20:22:00,
2013-06-28 15:33:00,88.0,82.0,-100.00,SW,227,16.0,-999.0,81,0.00,,,-99.99,,2013-06-28 20:33:00,
2013-06-28 15:43:00,88.0,82.0,-100.00,SW,227,16.0,-999.0,81,0.00,,,-99.99,,2013-06-28 20:43:00,
2013-06-28 16:23:00,88.0,82.0,-100.00,SW,235,15.0,-999.0,82,0.00,,,-99.99,,2013-06-28 21:23:00,
2013-06-28 16:34:00,88.0,82.0,-100.00,SW,235,15.0,-999.0,82,0.00,,,-99.99,,2013-06-28 21:34:00,
2013-06-28 16:43:00,88.0,82.0,-100.00,SW,235,15.0,-999.0,82,0.00,,,-99.99,,2013-06-28 21:43:00,
2013-06-28 17:22:00,88.0,80.0,-100.00,WSW,248,12.0,-999.0,78,0.00,,,-99.99,,2013-06-28 22:22:00,
2013-06-28 17:34:00,88.0,80.0,-100.00,WSW,248,12.0,-999.0,78,0.00,,,-99.99,,2013-06-28 22:34:00,
2013-06-28 17:43:00,88.0,80.0,-100.00,WSW,248,12.0,-999.0,78,0.00,,,-99.99,,2013-06-28 22:43:00,
2013-06-28 18:23:00,89.0,81.0,-100.00,WSW,247,11.0,-999.0,76,0.00,,,-99.99,,2013-06-28 23:23:00,
2013-06-28 18:34:00,89.0,81.0,-100.00,WSW,247,11.0,-999.0,76,0.00,,,-99.99,,2013-06-28 23:34:00,
2013-06-28 18:43:00,89.0,81.0,-100.00,WSW,247,11.0,-999.0,76,0.00,,,-99.99,,2013-06-28 23:43:00,
2013-06-28 19:23:00,89.0,79.0,-100.00,West,263,12.0,-999.0,72,0.00,,,-99.99,,2013-06-29 00:23:00,
2013-06-28 19:33:00,89.0,79.0,-100.00,West,263,12.0,-999.0,72,0.00,,,-99.99,,2013-06-29 00:33:00,
2013-06-28 19:42:00,89.0,79.0,-100.00,West,263,12.0,-999.0,72,0.00,,,-99.99,,2013-06-29 00:42:00,
2013-06-28 20:22:00,88.0,80.0,-100.00,WSW,241,10.0,-999.0,78,0.00,,,-99.99,,2013-06-29 01:22:00,
2013-06-28 20:32:00,88.0,80.0,-100.00,WSW,241,10.0,-999.0,78,0.00,,,-99.99,,2013-06-29 01:32:00,
2013-06-28 20:42:00,88.0,80.0,-100.00,WSW,241,10.0,-999.0,78,0.00,,,-99.99,,2013-06-29 01:42:00,
2013-06-28 21:21:00,86.0,83.0,-100.00,SW,221,16.0,-999.0,91,0.00,,,-99.99,,2013-06-29 02:21:00,
2013-06-28 21:31:00,86.0,83.0,-100.00,SW,221,16.0,-999.0,91,0.00,,,-99.99,,2013-06-29 02:31:00,
2013-06-28 21:41:00,86.0,83.0,-100.00,SW,221,16.0,-999.0,91,0.00,,,-99.99,,2013-06-29 02:41:00,
2013-06-28 22:21:00,87.0,84.0,-100.00,SW,227,13.0,-999.0,91,0.00,,,-99.99,,2013-06-29 03:21:00,
2013-06-28 22:32:00,87.0,84.0,-100.00,SW,227,13.0,-999.0,91,0.00,,,-99.99,,2013-06-29 03:32:00,
2013-06-28 22:41:00,87.0,84.0,-100.00,SW,227,13.0,-999.0,91,0.00,,,-99.99,,2013-06-29 03:41:00,
2013-06-28 23:23:00,86.0,84.0,-100.00,WSW,255,8.0,-999.0,93,0.00,,,-99.99,,2013-06-29 04:23:00,
2013-06-28 23:32:00,86.0,84.0,-100.00,WSW,255,8.0,-999.0,93,0.00,,,-99.99,,2013-06-29 04:32:00,
2013-06-28 23:41:00,86.0,84.0,-100.00,WSW,255,8.0,-999.0,93,0.00,,,-99.99,,2013-06-29 04:41:00,